time_stamp(utc),avg(mph),gust(mph),direction(deg),12m_air_temp(f),sonic_u(cm/s),sonic_v(cm/s),sonic_w(cm/s),pressure,2m_air_temp(f),pyranometer(W/m^2)
"2021-04-11 00:02:39+00",5.3,7.3,,52.1,37,-212,-7,1010.08,52.1,0
"2021-04-11 00:07:39+00",5.9,6.9,,52.1,52,-249,-18,1010.05,52.1,0
"2021-04-11 00:12:39+00",6.0,7.0,,52.1,48,-230,-14,1009.92,52.1,0
"2021-04-11 00:17:39+00",6.5,7.5,,52.1,73,-269,-16,1009.95,52.1,0
"2021-04-11 00:22:39+00",6.2,8.2,,52.2,44,-253,-7,1009.88,52.1,0
"2021-04-11 00:27:39+00",7.6,8.6,,52.2,-10,-317,-14,1009.95,52.1,0
"2021-04-11 00:32:39+00",5.7,7.7,,52.2,-28,-243,-2,1009.93,52,0
"2021-04-11 00:37:39+00",6.8,7.8,,52.4,-5,-281,-15,1009.79,52.1,0
"2021-04-11 00:42:39+00",6.1,6.1,,52.3,34,-260,-9,1009.84,52.2,0
"2021-04-11 00:47:39+00",7.3,9.3,,52.3,2,-307,-8,1009.85,52,0
"2021-04-11 00:52:39+00",7.0,9.0,,52.5,-15,-286,-6,1009.79,52.1,0
"2021-04-11 00:57:39+00",6.3,7.3,,52.6,11,-258,-13,1009.85,52.3,0
"2021-04-11 01:02:39+00",5.8,6.8,,52.7,63,-237,-6,1009.75,52.3,0
"2021-04-11 01:07:39+00",5.3,6.3,,52.6,59,-207,-3,1009.69,52.3,0
"2021-04-11 01:12:39+00",5.7,6.7,,52.7,52,-230,-9,1009.7,52.4,0
"2021-04-11 01:17:39+00",7.5,8.5,,52.6,117,-298,-6,1009.58,52.4,0
"2021-04-11 01:22:39+00",7.4,8.4,,52.4,108,-293,-9,1009.52,52.2,0
"2021-04-11 01:27:39+00",8.2,10.2,,52.7,89,-342,-6,1009.46,52.3,0
"2021-04-11 01:32:39+00",7.5,9.5,,52.7,127,-290,-7,1009.3,52.5,0
"2021-04-11 01:37:39+00",8.1,9.1,,52.6,201,-288,-5,1009.29,52.5,0
"2021-04-11 01:42:39+00",8.4,10.4,,52.3,204,-308,-3,1009.14,52.4,0
"2021-04-11 01:47:39+00",7.9,8.9,,52.1,186,-282,-4,1009.04,52.2,0
"2021-04-11 01:52:39+00",8.6,9.6,,52,189,-311,1,1008.97,52,0
"2021-04-11 01:57:39+00",9.2,11.2,,51.9,174,-359,-5,1008.74,51.9,0
"2021-04-11 02:02:39+00",9.0,10.0,,51.9,185,-347,-4,1008.57,51.8,0
"2021-04-11 02:07:39+00",8.6,10.6,,52,160,-330,-9,1008.55,51.8,0
"2021-04-11 02:12:39+00",8.4,9.4,,52.1,130,-336,-6,1008.51,51.9,0
"2021-04-11 02:17:39+00",7.4,8.4,,52,77,-287,-2,1008.55,51.8,0
"2021-04-11 02:22:39+00",8.1,10.1,,51.9,118,-339,-6,1008.51,51.7,0
"2021-04-11 02:27:39+00",9.0,11.0,,52.2,89,-370,-21,1008.54,51.9,0
"2021-04-11 02:32:39+00",7.1,9.1,,52.1,74,-282,-1,1008.48,51.9,0
"2021-04-11 02:37:39+00",7.6,10.6,,52.2,65,-324,-7,1008.59,52,0
"2021-04-11 02:42:39+00",7.1,10.1,,52.4,21,-300,-18,1008.57,52.2,0
"2021-04-11 02:47:39+00",7.6,9.6,,52.4,6,-297,-18,1008.57,52.3,0
"2021-04-11 02:52:39+00",7.1,10.1,,52.6,-1,-301,-14,1008.64,52.4,0
"2021-04-11 02:57:39+00",7.3,9.3,,52.9,39,-309,-11,1008.61,52.7,0
"2021-04-11 03:02:39+00",7.5,9.5,,53.1,0,-324,-15,1008.48,52.9,0
"2021-04-11 03:07:39+00",7.7,10.7,,53.1,20,-316,12,1008.51,52.9,0
"2021-04-11 03:12:39+00",7.4,9.4,,53.2,8,-321,-12,1008.49,53.1,0
"2021-04-11 03:17:39+00",7.1,10.1,,53,-11,-289,-19,1008.38,52.9,0
"2021-04-11 03:22:39+00",7.3,10.3,,53,-38,-304,0,1008.58,52.8,0
"2021-04-11 03:27:39+00",7.1,10.1,,53.2,-63,-298,-4,1008.65,52.9,0
"2021-04-11 03:32:39+00",7.6,10.6,,53.5,-94,-324,1,1008.73,53.2,0
"2021-04-11 03:37:39+00",7.0,9.0,,53.8,-113,-273,1,1008.57,53.6,0
"2021-04-11 03:42:39+00",6.8,7.8,,53.8,-184,-250,8,1008.52,53.7,0
"2021-04-11 03:47:39+00",7.7,8.7,,53.6,-116,-315,-3,1008.39,53.5,0
"2021-04-11 03:52:39+00",8.7,10.7,,53.6,-101,-359,-1,1008.39,53.4,0
"2021-04-11 03:57:39+00",7.0,10.0,,53.5,-35,-274,-5,1008.27,53.4,0
"2021-04-11 04:02:39+00",6.6,7.6,,53.5,-57,-281,-11,1008.12,53.3,0
"2021-04-11 04:07:39+00",7.8,8.8,,53.3,-129,-312,-9,1008.24,53.2,0
"2021-04-11 04:12:39+00",6.6,8.6,,53.3,-33,-283,-15,1008.04,53.2,0
"2021-04-11 04:17:39+00",6.2,8.2,,53.2,54,-243,-13,1007.76,53.2,0
"2021-04-11 04:22:39+00",5.4,6.4,,53.2,4,-225,-1,1007.7,53.1,0
"2021-04-11 04:27:39+00",6.8,7.8,,53.1,-40,-268,-14,1007.71,53,0
"2021-04-11 04:32:39+00",5.3,7.3,,52.8,18,-225,-9,1007.6,52.8,0
"2021-04-11 04:37:39+00",5.8,9.8,,52.7,32,-227,-3,1007.7,52.6,0
"2021-04-11 04:42:39+00",5.7,7.7,,52.7,25,-251,-23,1007.54,52.6,0
"2021-04-11 04:47:39+00",6.7,7.7,,52.6,-60,-271,-18,1007.66,52.5,0
"2021-04-11 04:52:39+00",9.1,11.1,,52.7,-102,-376,-8,1007.7,52.5,0
"2021-04-11 04:57:39+00",3.9,4.9,,52.8,-47,-158,5,1007.59,52.6,0
"2021-04-11 05:02:39+00",5.5,7.5,,52.9,-22,-217,-7,1007.46,52.7,0
"2021-04-11 05:07:39+00",10.3,11.3,,52.8,-119,-418,-17,1007.65,52.7,0
"2021-04-11 05:12:39+00",8.9,9.9,,52.9,-141,-366,-2,1007.66,52.7,0
"2021-04-11 05:17:39+00",7.3,8.3,,52.9,-112,-289,-12,1007.45,52.8,0
"2021-04-11 05:22:39+00",6.4,7.4,,52.9,-135,-244,-9,1007.34,52.8,0
"2021-04-11 05:27:39+00",5.1,6.1,,53,-121,-191,0,1007.21,52.9,0
"2021-04-11 05:32:39+00",7.6,8.6,,53.1,-166,-296,-7,1007.08,52.9,0
"2021-04-11 05:37:39+00",5.6,7.6,,53.1,-58,-222,-13,1006.85,53,0
"2021-04-11 05:42:39+00",6.2,7.2,,53.1,-83,-253,1,1006.83,53,0
"2021-04-11 05:47:39+00",5.3,6.3,,53.1,-53,-223,-6,1006.65,53,0
"2021-04-11 05:52:39+00",5.0,8.0,,53.2,-6,-206,7,1006.66,53,0
"2021-04-11 05:57:39+00",5.4,7.4,,53.2,3,-216,-7,1006.43,53.1,0
"2021-04-11 06:02:39+00",5.8,7.8,,53.3,59,-224,-12,1006.38,53.2,0
"2021-04-11 06:07:39+00",6.9,7.9,,53.3,66,-285,-22,1006.22,53.1,0
"2021-04-11 06:12:39+00",7.6,8.6,,53.1,100,-306,-11,1006.15,53.1,0
"2021-04-11 06:17:39+00",6.0,7.0,,52.9,160,-197,6,1005.87,52.9,0
"2021-04-11 06:22:39+00",6.0,7.0,,52.7,141,-215,1,1005.88,52.7,0
"2021-04-11 06:27:39+00",5.6,6.6,,52.5,111,-209,-15,1005.78,52.6,0
"2021-04-11 06:32:39+00",5.4,6.4,,52.4,124,-199,-1,1005.69,52.4,0
"2021-04-11 06:37:39+00",4.8,5.8,,52.4,70,-188,-10,1005.64,52.3,0
"2021-04-11 06:42:39+00",5.1,6.1,,52.3,34,-210,-7,1005.64,52.2,0
"2021-04-11 06:47:39+00",3.9,4.9,,52.3,44,-142,6,1005.56,52.2,0
"2021-04-11 06:52:39+00",2.8,3.8,,52.3,52,-89,4,1005.48,52.2,0
"2021-04-11 06:57:39+00",3.8,4.8,,52.3,42,-141,-3,1005.46,52.2,0
"2021-04-11 07:02:39+00",3.8,4.8,,52.3,31,-151,0,1005.37,52.2,0
"2021-04-11 07:07:39+00",4.5,5.5,,52.4,96,-156,-3,1005.27,52.3,0
"2021-04-11 07:12:39+00",5.1,6.1,,52.6,120,-174,-2,1005.33,52.4,0
"2021-04-11 07:17:39+00",5.2,6.2,,52.6,119,-189,-2,1005.26,52.5,0
"2021-04-11 07:22:39+00",5.9,6.9,,52.7,185,-172,-4,1005.25,52.6,0
"2021-04-11 07:27:39+00",5.5,6.5,,52.7,168,-164,-4,1005.23,52.6,0
"2021-04-11 07:32:39+00",5.1,6.1,,52.8,197,-115,4,1005.1,52.7,0
"2021-04-11 07:37:39+00",5.4,6.4,,52.7,212,-117,5,1005.01,52.7,0
"2021-04-11 07:42:39+00",5.9,6.9,,52.7,226,-136,5,1004.87,52.7,0
"2021-04-11 07:47:39+00",6.3,7.3,,52.7,206,-172,-4,1004.83,52.6,0
"2021-04-11 07:52:39+00",6.2,8.2,,52.8,223,-150,3,1004.73,52.7,0
"2021-04-11 07:57:39+00",6.4,7.4,,52.7,260,-121,-3,1004.67,52.6,0
"2021-04-11 08:02:39+00",7.1,8.1,,52.6,273,-134,5,1004.66,52.6,0
"2021-04-11 08:07:39+00",6.6,7.6,,52.7,263,-128,6,1004.67,52.6,0
"2021-04-11 08:12:39+00",6.2,7.2,,52.7,254,-102,3,1004.55,52.6,0
"2021-04-11 08:17:39+00",7.3,8.3,,52.8,305,-115,5,1004.5,52.7,0
"2021-04-11 08:22:39+00",7.5,8.5,,52.9,282,-171,-2,1004.57,52.7,0
"2021-04-11 08:27:39+00",7.1,8.1,,52.9,265,-169,4,1004.52,52.8,0
"2021-04-11 08:32:39+00",7.6,9.6,,53.1,254,-227,-3,1004.51,52.9,0
"2021-04-11 08:37:39+00",6.9,8.9,,53,211,-205,-6,1004.52,52.9,0
"2021-04-11 08:42:39+00",6.6,7.6,,53.1,196,-213,1,1004.51,52.9,0
"2021-04-11 08:47:39+00",7.1,8.1,,53,232,-203,-3,1004.47,52.9,0
"2021-04-11 08:52:39+00",5.9,6.9,,52.9,150,-192,3,1004.5,52.9,0
"2021-04-11 08:57:39+00",6.5,7.5,,53.1,158,-224,-4,1004.52,52.9,0
"2021-04-11 09:02:39+00",7.1,8.1,,53.1,153,-261,-6,1004.44,53,0
"2021-04-11 09:07:39+00",5.6,6.6,,53,101,-214,-11,1004.44,52.9,0
"2021-04-11 09:12:39+00",4.3,5.3,,53.1,33,-165,12,1004.51,53,0
"2021-04-11 09:17:39+00",5.6,6.6,,53.1,64,-219,-14,1004.38,53,0
"2021-04-11 09:22:39+00",4.7,5.7,,53.1,74,-183,-7,1004.43,53,0
"2021-04-11 09:27:39+00",4.2,5.2,,53.2,91,-150,-7,1004.31,53,0
"2021-04-11 09:32:39+00",2.9,3.9,,53.2,47,-92,3,1004.32,53.1,0
"2021-04-11 09:37:39+00",3.7,4.7,,53.2,67,-119,1,1004.22,53.1,0
"2021-04-11 09:42:39+00",4.7,5.7,,53.1,85,-176,-5,1004.21,53,0
"2021-04-11 09:47:39+00",4.8,5.8,,53.1,153,-132,-10,1004.19,53,0
"2021-04-11 09:52:39+00",4.7,4.7,,53,175,-101,9,1004.12,53,0
"2021-04-11 09:57:39+00",3.8,3.8,,53,139,-86,1,1004.1,53,0
"2021-04-11 10:02:39+00",4.4,5.4,,53,174,-75,1,1003.99,52.9,0
"2021-04-11 10:07:39+00",3.7,4.7,,52.8,159,6,4,1003.92,52.9,0
"2021-04-11 10:12:39+00",3.4,4.4,,52.9,136,-23,5,1004.07,52.9,0
"2021-04-11 10:17:39+00",4.0,5.0,,53,153,-66,-1,1004.18,52.9,0
"2021-04-11 10:22:39+00",4.1,5.1,,53.1,160,-75,-2,1004.17,52.9,0
"2021-04-11 10:27:39+00",5.0,6.0,,53.3,190,-99,5,1004.19,53.1,0
"2021-04-11 10:32:39+00",5.6,6.6,,53.3,140,-179,-3,1004.3,53.1,0
"2021-04-11 10:37:39+00",5.9,6.9,,53.5,120,-214,-5,1004.31,53.3,0
"2021-04-11 10:42:39+00",6.1,7.1,,53.6,101,-237,-4,1004.34,53.4,0
"2021-04-11 10:47:39+00",6.4,7.4,,53.6,164,-236,-6,1004.3,53.4,0
"2021-04-11 10:52:39+00",6.8,7.8,,53.8,202,-213,7,1004.21,53.5,0
"2021-04-11 10:57:39+00",6.5,7.5,,53.7,200,-201,-1,1004.08,53.5,0
"2021-04-11 11:02:39+00",7.4,8.4,,53.5,235,-228,-3,1004.06,53.4,0
"2021-04-11 11:07:39+00",8.0,9.0,,53.4,294,-187,3,1003.92,53.3,0
"2021-04-11 11:12:39+00",8.9,9.9,,53.2,367,-145,9,1003.73,53.2,0
"2021-04-11 11:17:39+00",10.0,11.0,,53.2,402,-164,5,1003.68,53.1,0
"2021-04-11 11:22:39+00",11.2,12.2,,53.1,508,-32,17,1003.3,52.9,0
"2021-04-11 11:27:39+00",10.4,12.4,,53.3,453,-91,11,1003.17,53.1,0
"2021-04-11 11:32:39+00",10.4,12.4,,53.3,454,-98,16,1003.07,53.1,0
"2021-04-11 11:37:39+00",9.9,10.9,,53.1,422,-133,7,1003.23,52.9,0
"2021-04-11 11:42:39+00",11.0,13.0,,53,458,-171,-10,1003.26,52.9,0
"2021-04-11 11:47:39+00",10.2,11.2,,53,425,-116,4,1003.19,52.8,0
"2021-04-11 11:52:39+00",10.9,12.9,,53,467,-116,16,1003.1,52.9,0
"2021-04-11 11:57:39+00",11.3,12.3,,53.2,498,-65,32,1002.88,53,0
"2021-04-11 12:02:39+00",12.2,14.2,,53.3,532,-29,29,1002.75,53.1,0
"2021-04-11 12:07:39+00",13.3,15.3,,53.2,594,-75,24,1002.59,53.1,0
"2021-04-11 12:12:39+00",12.4,14.4,,53.3,554,-71,32,1002.51,53.1,0
"2021-04-11 12:17:39+00",12.9,14.9,,53.4,563,-74,27,1002.34,53.1,0
"2021-04-11 12:22:39+00",11.9,13.9,,53.4,515,-121,23,1002.41,53.2,0
"2021-04-11 12:27:39+00",11.8,13.8,,53.4,516,-98,11,1002.4,53.2,0
"2021-04-11 12:32:39+00",12.2,14.2,,53.5,528,-104,6,1002.31,53.3,0
"2021-04-11 12:37:39+00",10.7,12.7,,53.5,467,-106,14,1002.26,53.4,0
"2021-04-11 12:42:39+00",11.7,14.7,,53.5,518,-57,24,1002.1,53.4,0
"2021-04-11 12:47:39+00",12.7,14.7,,53.5,560,-20,33,1001.91,53.5,0
"2021-04-11 12:52:39+00",13.3,14.3,,53.6,585,16,38,1001.53,53.6,0
"2021-04-11 12:57:39+00",14.3,16.3,,53.7,626,-67,35,1001.43,53.7,0
"2021-04-11 13:02:39+00",15.0,18.0,,53.6,661,-156,18,1001.43,53.6,0
"2021-04-11 13:07:39+00",15.1,18.1,,53.5,648,-167,18,1001.43,53.5,0
"2021-04-11 13:12:39+00",15.4,17.4,,53.4,652,-149,8,1001.38,53.3,0
"2021-04-11 13:17:39+00",16.5,18.5,,53.5,724,-137,32,1001.1,53.4,0
"2021-04-11 13:22:39+00",17.9,20.9,,53.6,747,-323,12,1001.03,53.5,0
"2021-04-11 13:27:39+00",16.1,19.1,,53.6,686,-240,33,1000.94,53.5,0
"2021-04-11 13:32:39+00",15.3,17.3,,53.4,643,-273,1,1001.08,53.3,0
"2021-04-11 13:37:39+00",14.8,16.8,,53.7,563,-368,17,1001.32,53.4,0
"2021-04-11 13:42:39+00",13.2,16.2,,53.7,579,-136,29,1001.07,53.4,0
"2021-04-11 13:47:39+00",17.9,19.9,,53.9,746,-265,20,1001,53.6,0
"2021-04-11 13:52:39+00",13.1,15.1,,53.9,530,-235,27,1001.16,53.9,0
"2021-04-11 13:57:39+00",8.9,10.9,,54.1,329,-238,15,1001.31,53.8,0
"2021-04-11 14:02:39+00",12.3,15.3,,54.5,439,-312,-11,1001.18,54.3,0
"2021-04-11 14:07:39+00",18.3,24.3,,54.4,-656,-509,32,1002.25,54.3,0
"2021-04-11 14:12:39+00",12.0,15.0,,56,-360,-367,15,1002.02,55,0
"2021-04-11 14:17:39+00",14.6,18.6,,58.7,597,-196,-12,1001.53,57.8,0
"2021-04-11 14:22:39+00",12.4,14.4,,58.4,495,-266,25,1001.57,58.1,0
"2021-04-11 14:27:39+00",9.9,11.9,,58.6,379,-221,-6,1001.55,58.1,0
"2021-04-11 14:32:39+00",14.1,16.1,,58.6,569,-255,21,1001.44,58.1,0
"2021-04-11 14:37:39+00",14.1,16.1,,58.2,594,-231,6,1001.29,58,0
"2021-04-11 14:42:39+00",11.5,14.5,,57.6,506,-110,16,1001.22,57.4,0
"2021-04-11 14:47:39+00",8.6,11.6,,56.5,369,-129,0,1001.13,56.7,0
"2021-04-11 14:52:39+00",10.6,12.6,,55.9,441,-146,6,1000.92,56.1,0
"2021-04-11 14:57:39+00",12.4,14.4,,56,500,-222,8,1000.91,56.2,0
"2021-04-11 15:02:39+00",12.1,14.1,,55.5,505,-218,9,1000.8,55.7,0
"2021-04-11 15:07:39+00",15.7,17.7,,55.1,650,-267,8,1000.69,55.4,0
"2021-04-11 15:12:39+00",14.4,15.4,,55.3,596,-221,6,1000.64,55.3,0
"2021-04-11 15:17:39+00",13.7,16.7,,55.6,561,-201,4,1000.56,55.6,0
"2021-04-11 15:22:39+00",10.1,12.1,,55.6,440,-71,33,1000.62,55.8,0
"2021-04-11 15:27:39+00",14.0,16.0,,55.7,530,-330,3,1000.53,55.7,0
"2021-04-11 15:32:39+00",15.7,18.7,,55.5,550,-442,3,1000.46,55.5,0
"2021-04-11 15:37:39+00",15.6,18.6,,55.2,588,-402,3,1000.48,55.3,0
"2021-04-11 15:42:39+00",15.8,19.8,,55.3,596,-388,10,1000.42,55.2,0
"2021-04-11 15:47:39+00",17.1,19.1,,55.9,652,-414,-3,1000.25,55.9,0
"2021-04-11 15:52:39+00",14.6,17.6,,56,476,-424,11,1000.39,56.3,0
"2021-04-11 15:57:39+00",18.0,22.0,,57,659,-463,6,1000.21,56.8,0
"2021-04-11 16:02:39+00",17.0,19.0,,57.1,609,-431,11,1000.24,57.4,0
"2021-04-11 16:07:39+00",18.1,21.1,,57.7,730,-320,20,1000.21,57.7,0
"2021-04-11 16:12:39+00",15.2,17.2,,57,609,-287,13,1000.28,57.2,0
"2021-04-11 16:17:39+00",13.9,15.9,,56.5,506,-359,8,1000.44,56.8,0
"2021-04-11 16:22:39+00",15.3,17.3,,55.7,540,-401,-10,1000.52,56,0
"2021-04-11 16:27:39+00",15.7,18.7,,55.8,511,-487,-9,1000.55,55.6,0
"2021-04-11 16:32:39+00",15.0,16.0,,55.3,486,-441,2,1000.6,55.5,0
"2021-04-11 16:37:39+00",11.3,12.3,,54.9,299,-390,5,1000.59,55.1,0
"2021-04-11 16:42:39+00",8.9,9.9,,54.9,221,-311,22,1000.5,55.2,0
"2021-04-11 16:47:39+00",9.2,11.2,,55.3,140,-365,-4,1000.4,55.5,0
"2021-04-11 16:52:39+00",10.0,11.0,,54.8,243,-357,1,1000.24,55.2,0
"2021-04-11 16:57:39+00",8.7,10.7,,54.7,219,-296,1,1000.21,55.1,0
"2021-04-11 17:02:39+00",9.9,10.9,,55.3,224,-371,-11,1000.22,55.7,0
"2021-04-11 17:07:39+00",10.2,12.2,,55,192,-389,20,1000.28,55.3,0
"2021-04-11 17:12:39+00",12.9,14.9,,54.5,249,-487,-7,1000.32,54.9,0
"2021-04-11 17:17:39+00",9.8,12.8,,54.6,149,-386,3,1000.38,54.8,0
"2021-04-11 17:22:39+00",13.5,15.5,,54.6,256,-518,3,1000.42,54.8,0
"2021-04-11 17:27:39+00",12.1,14.1,,54.8,171,-498,-1,1000.43,55,0
"2021-04-11 17:32:39+00",18.1,20.1,,55.4,415,-655,15,1000.33,55.7,0
"2021-04-11 17:37:39+00",17.5,20.5,,55.2,424,-647,-11,1000.22,55.6,0
"2021-04-11 17:42:39+00",17.1,21.1,,55.4,388,-653,-7,1000.15,55.5,0
"2021-04-11 17:47:39+00",19.1,21.1,,56,554,-632,15,999.95,56.7,0
"2021-04-11 17:52:39+00",21.0,25.0,,56.5,685,-649,0,999.56,57.5,0
"2021-04-11 17:57:39+00",22.5,27.5,,56.7,751,-665,-9,999.34,57.7,0
"2021-04-11 18:02:39+00",21.2,25.2,,56.8,743,-593,9,999.22,57.9,0
"2021-04-11 18:07:39+00",19.8,23.8,,56.8,571,-637,-27,999.26,57.6,0
"2021-04-11 18:12:39+00",18.5,22.5,,56.4,509,-619,-4,999.19,57.3,0
"2021-04-11 18:17:39+00",18.6,21.6,,56.3,543,-617,-17,999.13,57.2,0
"2021-04-11 18:22:39+00",17.2,18.2,,56.3,488,-589,10,999.33,57.1,0
"2021-04-11 18:27:39+00",18.3,22.3,,56.2,514,-621,-30,999.23,56.9,0
"2021-04-11 18:32:39+00",18.2,21.2,,56.2,514,-603,-14,999.31,57.1,0
"2021-04-11 18:37:39+00",16.0,18.0,,56.2,446,-544,1,999.32,57,0
"2021-04-11 18:42:39+00",16.7,20.7,,56,455,-563,-7,999.41,56.8,0
"2021-04-11 18:47:39+00",13.9,15.9,,55.8,405,-464,9,999.38,56.8,0
"2021-04-11 18:52:39+00",12.5,14.5,,55.9,374,-377,30,999.35,56.9,0
"2021-04-11 18:57:39+00",12.0,15.0,,55.9,340,-415,24,999.36,57.1,0
"2021-04-11 19:02:39+00",11.4,13.4,,56,382,-333,12,999.29,57.1,0
"2021-04-11 19:07:39+00",9.8,10.8,,56,322,-289,9,999.36,57.1,0
"2021-04-11 19:12:39+00",11.8,14.8,,56.3,421,-330,-4,999.34,57.4,0
"2021-04-11 19:17:39+00",12.0,16.0,,56.7,455,-278,9,999.3,58,0
"2021-04-11 19:22:39+00",13.6,15.6,,56.2,523,-330,14,999.2,57.9,0
"2021-04-11 19:27:39+00",13.8,15.8,,55.9,546,-312,5,999.22,57.8,0
"2021-04-11 19:32:39+00",15.1,17.1,,55.9,603,-329,-19,999.2,57.7,0
"2021-04-11 19:37:39+00",14.0,17.0,,56.4,544,-308,29,999.11,58.3,0
"2021-04-11 19:42:39+00",16.7,18.7,,56.5,664,-366,21,998.97,58.6,0
"2021-04-11 19:47:39+00",13.3,15.3,,56.2,557,-219,9,998.98,58.6,0
"2021-04-11 19:52:39+00",11.3,14.3,,55.9,462,-184,19,998.85,58,0
"2021-04-11 19:57:39+00",9.4,10.4,,55.7,397,-130,16,998.81,57.7,0
"2021-04-11 20:02:39+00",9.6,11.6,,55.6,388,-183,-14,998.85,57.3,0
"2021-04-11 20:07:39+00",8.9,10.9,,55.7,329,-200,-17,998.97,57.2,0
"2021-04-11 20:12:39+00",9.7,11.7,,55.7,375,-224,-4,998.91,57,0
"2021-04-11 20:17:39+00",12.9,15.9,,56.1,516,-278,9,998.68,57.3,0
"2021-04-11 20:22:39+00",11.3,13.3,,56.1,466,-219,-3,998.74,57.3,0
"2021-04-11 20:27:39+00",11.9,12.9,,55.7,507,-189,-15,998.76,57.2,0
"2021-04-11 20:32:39+00",10.5,12.5,,55.6,443,-168,22,998.71,57,0
"2021-04-11 20:37:39+00",10.4,11.4,,55.5,422,-192,-10,998.74,56.8,0
"2021-04-11 20:42:39+00",9.6,11.6,,55.4,418,-127,-8,998.7,56.6,0
"2021-04-11 20:47:39+00",10.1,12.1,,55.4,449,-108,7,998.71,56.5,0
"2021-04-11 20:52:39+00",10.1,12.1,,55.2,435,-121,-4,998.85,56.4,0
"2021-04-11 20:57:39+00",9.2,11.2,,55.2,383,-169,19,998.96,56.3,0
"2021-04-11 21:02:39+00",10.1,13.1,,55,428,-170,8,999.13,56.3,0
"2021-04-11 21:07:39+00",9.1,10.1,,54.8,376,-164,8,999.33,55.9,0
"2021-04-11 21:12:39+00",9.2,11.2,,54.9,399,-145,12,999.27,55.9,0
"2021-04-11 21:17:39+00",8.0,9.0,,55,348,-65,14,999.47,55.9,0
"2021-04-11 21:22:39+00",8.6,9.6,,54.9,385,9,16,999.7,55.9,0
"2021-04-11 21:27:39+00",9.5,11.5,,55,422,71,30,999.89,55.8,0
"2021-04-11 21:32:39+00",11.4,13.4,,54.9,476,202,14,999.99,55.9,0
"2021-04-11 21:37:39+00",11.5,13.5,,55.1,508,120,32,999.85,56,0
"2021-04-11 21:42:39+00",12.5,13.5,,55.2,545,181,33,999.81,56.1,0
"2021-04-11 21:47:39+00",11.8,13.8,,55.1,506,158,22,999.73,56.1,0
"2021-04-11 21:52:39+00",10.9,13.9,,55.1,434,221,17,999.86,56,0
"2021-04-11 21:57:39+00",10.3,12.3,,54.8,417,205,24,999.9,55.7,0
"2021-04-11 22:02:39+00",12.6,14.6,,54.4,461,324,42,999.84,55.4,0
"2021-04-11 22:07:39+00",14.6,16.6,,53.5,520,391,14,999.81,54.7,0
"2021-04-11 22:12:39+00",12.4,14.4,,53.3,509,267,24,999.73,54.3,0
"2021-04-11 22:17:39+00",13.2,16.2,,53,541,257,39,999.94,54.1,0
"2021-04-11 22:22:39+00",13.8,15.8,,52.4,599,263,57,999.98,53.6,0
"2021-04-11 22:27:39+00",15.4,18.4,,52.3,668,289,37,999.93,53.3,0
"2021-04-11 22:32:39+00",15.9,18.9,,52.2,670,308,46,999.84,53.1,0
"2021-04-11 22:37:39+00",20.2,23.2,,51.7,866,367,47,999.77,52.8,0
"2021-04-11 22:42:39+00",18.1,21.1,,51.8,796,318,64,999.8,52.5,0
"2021-04-11 22:47:39+00",20.4,23.4,,51.6,860,381,52,999.86,52.4,0
"2021-04-11 22:52:39+00",20.8,25.8,,51.3,891,352,62,999.97,52.2,0
"2021-04-11 22:57:39+00",21.3,24.3,,51,922,266,62,1000.25,51.9,0
"2021-04-11 23:02:39+00",21.6,23.6,,50.8,933,306,35,1000.3,51.6,0
"2021-04-11 23:07:39+00",18.0,20.0,,50.8,772,231,91,1000.29,51.5,0
"2021-04-11 23:12:39+00",24.9,26.9,,50.4,1092,343,39,1000.29,51.2,0
"2021-04-11 23:17:39+00",23.6,25.6,,50.2,1057,284,64,1000.25,51,0
"2021-04-11 23:22:39+00",23.9,26.9,,50.1,1072,269,73,1000.31,50.8,0
"2021-04-11 23:27:39+00",23.4,26.4,,50.1,1042,237,77,1000.49,50.7,0
"2021-04-11 23:32:39+00",24.0,28.0,,49.9,1062,319,53,1000.48,50.5,0
"2021-04-11 23:37:39+00",22.4,24.4,,49.9,1080,204,24,1000.46,50.4,0
"2021-04-11 23:42:39+00",24.4,27.4,,49.7,1229,283,-15,1000.6,50.3,0
"2021-04-11 23:47:39+00",21.1,23.1,,49.7,979,247,46,1000.76,50.2,0
"2021-04-11 23:52:39+00",19.7,22.7,,49.8,877,255,59,1000.81,50.2,0
"2021-04-11 23:57:39+00",20.7,23.7,,49.7,906,277,48,1000.87,50.1,0
